Regional Weather Roundup
Issued by NWS

Home | Current Version | Previous Version | Graphics & Text | Print | Product List | Glossary On
Versions: 1 2 3 4 5 6 7 8 9 10 11 12 13 14 15 16 17 18 19 20 21 22 23 24 25 26 27 28 29 30 31 32 33 34 35 36 37 38 39 40 41 42 43 44 45 46 47 48 49 50
000
ASUS43 KMKX 191720
RWRWI

WISCONSIN REGIONAL WEATHER ROUNDUP
NATIONAL WEATHER SERVICE MILWAUKEE/SULLIVAN WI
1200 PM CDT THU APR 19 2018

NOTE: "FAIR" INDICATES FEW OR NO CLOUDS BELOW 12,000 FEET WITH NO
SIGNIFICANT WEATHER AND/OR OBSTRUCTIONS TO VISIBILITY.

WIZ001-002-006>008-014>016-023>028-191800-
NORTHWEST WISCONSIN

CITY           SKY/WX    TMP DP  RH WIND       PRES   REMARKS
SUPERIOR ARPT  FAIR      51  15  23 NW5       30.43S
ASHLAND        FAIR      46  12  25 CALM      30.42S
HAYWARD        FAIR      48  19  31 VRB5      30.42R
SIREN          FAIR      48  14  25 W6        30.44S
CUMBERLAND     FAIR      41  14  33 NW6       30.44R
RICE LAKE      FAIR      44  16  32 NW7       30.45S
CHETEK         FAIR      44  18  36 W8        30.44R
LADYSMITH      FAIR      47  16  28 NW6       30.42R
EAU CLAIRE     FAIR      43  20  39 NW12      30.44R
MENOMONIE      FAIR      45  17  32 W9G16     30.46R
NEW RICHMOND   FAIR      43  14  31 NW10      30.47R
OSCEOLA        FAIR      46  15  28 NW6       30.50R
$$

WIZ003>005-009-010-017-018-191800-
NORTH CENTRAL WISCONSIN

CITY           SKY/WX    TMP DP  RH WIND       PRES   REMARKS
MANITOWISH WTR FAIR      45  13  27 N5        30.36S
ARBOR VITAE    FAIR      45  13  27 N12       30.35S
WOODRUFF       FAIR      45  13  27 N12       30.35S
RHINELANDER    FAIR      48  10  21 N7        30.35R
EAGLE RIVER    FAIR      46   9  22 N12       30.34R
LAND O LAKES   FAIR      45  10  23 N7        30.36S
PHILLIPS       FAIR      46  15  28 N9        30.37S
TOMAHAWK       FAIR      48  12  23 NW10      30.36S
MEDFORD        FAIR      44  16  32 NW7       30.37R
MERRILL          N/A     47  15  27 N7        30.36S
$$

WIZ029-030-035-036-043>047-191800-
CENTRAL WISCONSIN

CITY           SKY/WX    TMP DP  RH WIND       PRES   REMARKS
WAUSAU         FAIR      45  16  31 NW6       30.35R
MOSINEE        SUNNY     43  19  39 NW8       30.37R
MARSHFIELD     FAIR      40  22  48 W9        30.38R WCI  34
STEVENS POINT  FAIR      45  16  31 NW5       30.36S
WAUPACA        FAIR      52  12  19 W3        30.36R
WAUTOMA        FAIR      42  21  43 W9        30.38R
WISC RAPIDS    FAIR      42  19  39 NW8       30.39R
CAMP DOUGLAS   MOSUNNY   41  27  56 W8        30.40R
$$

WIZ011>013-019>022-031-037>040-048>050-191800-
NORTHEAST WISCONSIN

CITY           SKY/WX    TMP DP  RH WIND       PRES   REMARKS
ANTIGO         FAIR      44  17  34 N6        30.34R
SHAWANO        FAIR      51  16  24 NE5       30.32S
OCONTO         FAIR      46  14  27 NW10      30.32R
STURGEON BAY   FAIR      42  19  39 N12       30.32R
GREEN BAY      FAIR      45  21  38 NW9       30.34R
MANITOWOC      FAIR      41  19  41 NW10      30.34R
APPLETON       SUNNY     43  18  36 W7        30.33R
CLINTONVILLE   FAIR      49  11  21 N5        30.34R
OSHKOSH        FAIR      41  21  44 W7        30.35R
$$

WIZ032>034-041-042-053>061-191800-
SOUTHWEST WISCONSIN

CITY           SKY/WX    TMP DP  RH WIND       PRES   REMARKS
LA CROSSE      FAIR      40  27  59 N9        30.46R WCI  34
SPARTA         FAIR      41  28  60 W3        30.44R
VIROQUA        FAIR      40  28  64 NW8       30.43R WCI  34
BOSCOBEL       FAIR      45  25  45 W5        30.44R
PRAIRIE DU CHI FAIR      42  24  48 CALM      30.45R
PLATTEVILLE    FAIR      39  29  65 N3        30.42R
$$

WIZ056-057-062-063-064-067-068-191800-
SOUTH CENTRAL WISCONSIN

CITY           SKY/WX    TMP DP  RH WIND       PRES   REMARKS
REEDSBURG      FAIR      41  26  55 W8        30.40R
BARABOO/DELLS  FAIR      41  24  49 W6        30.39R
LONE ROCK      FAIR      39  28  64 SW5       30.42R
MINERAL POINT  FAIR      43  23  45 NW5       30.40S
MADISON        FAIR      40  23  50 NW7       30.39R
MIDDLETON      FAIR      42  25  50 NW6       30.40R
WATERTOWN      FAIR      38  24  57 NW10      30.37R WCI  31
MONROE         FAIR      41  23  48 NW6       30.39R
JANESVILLE     MOSUNNY   43  27  52 NW8       30.38R
$$

WIZ051-052-058>065-066-070>072-191800-
SOUTHEAST WISCONSIN

CITY           SKY/WX    TMP DP  RH WIND       PRES   REMARKS
MILWAUKEE      FAIR      44  25  47 NW9       30.34R
WAUKESHA       SUNNY     37  23  56 W10       30.36R WCI  30
MILWAUKEE/TIMM SUNNY     41  21  45 NW7       30.35R
RACINE         FAIR      42  23  46 N13       30.36R
BURLINGTON     FAIR      39  25  55 W8        30.36R WCI  34
KENOSHA        FAIR      41  27  57 NW8       30.35R
FOND DU LAC    FAIR      41  18  39 NW7       30.36R
SHEBOYGAN      FAIR      42  20  41 N10       30.33R
WEST BEND      FAIR      41  23  48 NW9       30.34R
JUNEAU         FAIR      36  23  58 NW5       30.38R WCI  32
$$

LSZ147-162-191800-
LAKE SUPERIOR

STATION/POSITION TIME  TEMP    WIND        PRES    WAVE
                       AIR SEA DIR/SP/G            HT/PER
                 (UTC) (F)     (DEG/KT/KT) (MB)    (FT/S)
DEVILS ISLAND    1700   39     220/  5/  8 1030.8F
SAXON HARBOR     1640   42      CALM  /  1 1030.1R
$$

LMZ867-665-643>646-191800-
LAKE MICHIGAN

STATION/POSITION TIME  TEMP    WIND        PRES    WAVE
                       AIR SEA DIR/SP/G            HT/PER
                 (UTC) (F)     (DEG/KT/KT) (MB)    (FT/S)
NORTHPORT PIER   1640   36                 1025.7R
KEWAUNEE LAKESHO 1654   43     320/  6/  9 1026.0R
SHEBOYGAN LAKESH 1700   38     360/ 10/ 11 1027.7
PORT WASHINGTON  1630   43     330/  5/  9 1028.1R
MILWAUKEE LAKESH 1700   40      40/  4/  5   N/A
KENOSHA   LAKESH 1700   42                 1027.4
$$

TC  - TEMPERATURE IN CELSIUS
VSB - VISIBILITY IN STATUTE MILES
WCI - WIND CHILL INDEX
HX  - HEAT INDEX





USA.gov is the U.S. government's official web portal to all federal, state and local government web resources and services.